MST,Max TemperatureF,Mean TemperatureF,Min TemperatureF,Max Dew PointF,MeanDew PointF,Min DewpointF,Max Humidity, Mean Humidity, Min Humidity, Max Sea Level PressureIn, Mean Sea Level PressureIn, Min Sea Level PressureIn, Max VisibilityMiles, Mean VisibilityMiles, Min VisibilityMiles, Max Wind SpeedMPH, Mean Wind SpeedMPH, Max Gust SpeedMPH,PrecipitationIn, CloudCover, Events, WindDirDegrees
2014-1-1,69,51,33,36,28,23,81,42,17,30.19,30.13,30.08,10,10,10,9,4,,0.00,0,,271
2014-1-2,75,57,39,28,24,23,65,26,14,30.18,30.12,30.06,10,10,10,20,9,26,0.00,0,,99
2014-1-3,73,57,41,32,28,27,57,31,18,30.08,30.01,29.94,10,10,10,39,9,,0.00,0,,312
2014-1-4,66,54,42,32,30,28,66,42,24,30.04,29.99,29.97,10,10,10,7,3,,0.00,0,,84
2014-1-5,62,48,35,32,29,23,81,48,22,30.19,30.14,30.10,10,10,10,10,3,,0.00,0,,312
2014-1-6,66,47,28,21,16,12,74,33,12,30.28,30.21,30.14,10,10,10,14,5,,0.00,0,,57
2014-1-7,69,51,33,19,14,10,48,22,11,30.16,30.10,30.04,10,10,10,17,7,,0.00,0,,103
2014-1-8,66,52,37,25,21,19,60,29,17,30.12,30.08,30.04,10,10,10,12,4,,0.00,0,,10
2014-1-9,66,50,35,27,24,21,60,33,18,30.10,30.03,29.97,10,10,10,12,6,,0.00,0,,60
2014-1-10,64,48,32,25,22,21,69,41,19,30.14,30.10,30.07,10,10,10,41,7,,0.00,0,,320
2014-1-11,68,55,42,37,28,25,81,34,21,30.24,30.15,30.09,10,10,10,6,1,,0.00,0,,263
2014-1-12,69,52,35,30,29,27,70,41,20,30.15,30.08,30.03,10,10,10,10,4,,0.00,0,,283
2014-1-13,66,50,35,30,24,18,75,38,18,30.35,30.30,30.26,10,10,10,14,5,17,0.00,0,,168
2014-1-14,66,49,32,21,20,19,60,32,18,30.35,30.30,30.25,10,10,10,10,5,,0.00,0,,288
2014-1-15,71,52,32,21,19,14,60,32,12,30.33,30.26,30.19,10,10,10,12,4,,0.00,0,,127
2014-1-16,71,53,35,23,20,18,56,26,13,30.20,30.12,30.08,10,10,10,14,7,,0.00,0,,300
2014-1-17,75,55,35,21,19,14,56,27,10,30.21,30.14,30.09,10,10,10,10,7,,0.00,0,,68
2014-1-18,73,54,35,21,18,14,52,27,10,30.17,30.13,30.07,10,10,10,8,6,,0.00,0,,107
2014-1-19,73,54,39,21,18,16,49,29,11,30.21,30.15,30.10,10,10,10,10,4,,0.00,0,,152
2014-1-20,69,69,60,23,21,19,23,19,15,30.21,30.17,30.13,10,10,10,10,5,,0.00,0,,102
2014-1-21,77,57,37,23,16,12,56,21,9,30.24,30.17,30.09,10,10,10,21,9,26,0.00,0,,108
2014-1-22,73,58,42,27,21,18,43,24,12,30.05,29.98,29.91,10,10,10,12,5,,0.00,0,,331
2014-1-23,71,54,37,25,21,18,52,24,13,30.11,30.04,30.00,10,10,10,6,1,,0.00,0,,265
2014-1-24,66,60,53,21,20,19,26,21,17,30.32,30.27,30.24,10,10,10,22,18,28,0.00,0,,88
2014-1-25,71,63,55,46,39,34,51,41,33,30.25,30.19,30.13,10,10,10,8,7,,0.00,1,,67
2014-1-26,69,56,44,30,28,25,53,31,20,30.14,30.07,29.99,10,10,10,9,2,,0.00,0,,281
2014-1-27,71,58,46,32,28,23,53,30,18,30.07,30.02,29.96,10,10,10,15,5,21,0.00,1,,285
2014-1-28,69,53,37,30,26,21,65,34,16,30.13,30.07,30.02,10,10,10,9,2,,0.00,0,,287
2014-1-29,71,61,51,27,20,16,38,19,12,30.12,30.06,29.99,10,10,10,6,5,,0.00,0,,335
2014-1-30,80,60,41,27,22,19,45,23,10,29.99,29.91,29.85,10,10,10,16,9,22,0.00,0,,167
2014-1-31,71,66,62,36,29,27,32,24,19,29.90,29.86,29.82,10,10,10,23,12,33,0.00,1,,227